Regional Weather Roundup
Issued by NWS Sioux Falls, SD

Home | Current Version | Previous Version | Graphics & Text | Print | Product List | Glossary On
Versions: 1 2 3 4 5 6 7 8 9 10 11 12 13 14 15 16 17 18 19 20 21 22 23 24 25 26 27 28 29 30 31 32 33 34 35 36 37 38 39 40 41 42 43 44 45 46 47 48 49 50
000
ASUS43 KFSD 192010
RWRFSD

WEATHER ROUNDUP FOR SE SOUTH DAKOTA/SW MINNESOTA/NW IOWA
NATIONAL WEATHER SERVICE SIOUX FALLS SD
300 PM CDT SAT APR 19 2014

NOTE: "FAIR" INDICATES FEW OR NO CLOUDS BELOW 12,000 FEET WITH NO
SIGNIFICANT WEATHER AND OR OBSTRUCTIONS TO VISIBILITY.


SDZ038>040-050-052>070-192100-
SOUTHEAST SOUTH DAKOTA

CITY           SKY/WX    TMP DP  RH WIND       PRES   REMARKS
CHAMBERLAIN      N/A     67  24  19 VRB3      30.02F
HURON          PTSUNNY   68  24  19 W8        29.99F
MADISON        FAIR      64  34  32 NW10      30.01R
MITCHELL       PTSUNNY   68  31  25 N10       30.00S
SIOUX FALLS    CLOUDY    67  42  40 N8        29.99R
WINNER         FAIR      67  20  16 NE8       30.03S
YANKTON        PTSUNNY   70  43  37 N10       30.00R
$$

MNZ071-072-080-081-089-090-097-098-192100-
SOUTHWEST MINNESOTA

CITY           SKY/WX    TMP DP  RH WIND       PRES   REMARKS
FAIRMONT       CLOUDY    73  45  35 SW17      30.00S
JACKSON        PTSUNNY   73  43  33 SW20G30   29.99S
LUVERNE        MOSUNNY   72  41  33 NW8G17    29.97S
MARSHALL       CLOUDY    64  46  52 NW15      29.98R
MONTEVIDEO     CLOUDY    63  46  55 NW9       30.00R
PIPESTONE      PTSUNNY   64  41  42 N8G16     29.98S
REDWOOD FALLS  PTSUNNY   67  47  48 NW14      29.97R
TRACY          PTSUNNY   70  46  41 NW16      29.97S
WINDOM         MOSUNNY   73  45  35 SW16G26   29.97S
WORTHINGTON    MOSUNNY   72  45  37 SW16      30.00S
$$

IAZ001>003-012>014-020>022-031-032-NEZ013-014-SDZ071-192100-
NORTHWEST IOWA

CITY           SKY/WX    TMP DP  RH WIND       PRES   REMARKS
CHEROKEE       PTSUNNY   76  46  34 S20G26    29.99S
DENISON        MOSUNNY   77  43  29 S17G28    29.99F
ESTHERVILLE    PTSUNNY   75  47  36 SW28G36   29.98S
LE MARS        CLOUDY    75  48  38 SW17      29.98S
ORANGE CITY    MOSUNNY   75  45  33 SW10G21   29.99S
SHELDON        PTSUNNY   73  46  38 SW17G26   29.98S
SIOUX CITY     CLOUDY    77  47  34 SW13      29.97F
SPENCER        PTSUNNY   76  46  34 SW23G31   29.99S
STORM LAKE     PTSUNNY   75  45  33 SW21G30   30.01R
$$

ABBREVIATIONS USED IN REMARKS
   TC - TEMPERATURE IN CELSIUS
  WCI - WIND CHILL INDEX
   HX - HEAT INDEX
  VSB - VISIBILITY




USA.gov is the U.S. government's official web portal to all federal, state and local government web resources and services.